SWA3288 KBNA-KAUS

Flight info

Callsign SWA3288
Flight time 2h 6m
Altitude 32000
Route DANLS4 TPEEE MEMFS TXK BROBB WINDU SEWZY6
Aircraft B738/M-SDE2E3FGHIRWXY/LB1

Departure

Time 2026-05-08 00:22
Airport Nashville International Airport (KBNA)

Arrival

Time 2026-05-08 02:28
Airport Austin Bergstrom International Airport (KAUS)
Time Latitude Longitude Altitude Speed Heading
2026-05-08 00:00 36.13123 -86.67080 568 ft 0 kts 82°
2026-05-08 00:12 36.13123 -86.67083 568 ft 3 kts 82°
2026-05-08 00:12 36.13119 -86.67115 568 ft 4 kts 82°
2026-05-08 00:12 36.13116 -86.67147 568 ft 2 kts 82°
2026-05-08 00:12 36.13115 -86.67174 568 ft 4 kts 117°
2026-05-08 00:13 36.13133 -86.67195 571 ft 4 kts 161°
2026-05-08 00:13 36.13139 -86.67197 568 ft 1 kts 163°
2026-05-08 00:15 36.13135 -86.67196 568 ft 2 kts 163°
2026-05-08 00:15 36.13104 -86.67184 574 ft 8 kts 163°
2026-05-08 00:15 36.13030 -86.67157 574 ft 14 kts 169°
2026-05-08 00:16 36.12947 -86.67224 571 ft 15 kts 224°
2026-05-08 00:16 36.12855 -86.67272 573 ft 15 kts 219°
2026-05-08 00:16 36.12800 -86.67336 570 ft 6 kts 224°
2026-05-08 00:16 36.12769 -86.67372 572 ft 6 kts 223°
2026-05-08 00:17 36.12737 -86.67408 576 ft 6 kts 224°
2026-05-08 00:17 36.12730 -86.67456 573 ft 7 kts 308°
2026-05-08 00:17 36.12781 -86.67517 573 ft 13 kts 314°
2026-05-08 00:17 36.12860 -86.67618 573 ft 20 kts 314°
2026-05-08 00:18 36.12965 -86.67756 571 ft 24 kts 313°
2026-05-08 00:18 36.13066 -86.67890 576 ft 16 kts 304°
2026-05-08 00:18 36.13010 -86.67976 576 ft 15 kts 196°
2026-05-08 00:18 36.12912 -86.68014 577 ft 15 kts 197°
2026-05-08 00:19 36.12818 -86.68050 576 ft 14 kts 197°
2026-05-08 00:19 36.12715 -86.68088 574 ft 17 kts 197°
2026-05-08 00:19 36.12588 -86.68134 573 ft 20 kts 196°
2026-05-08 00:19 36.12447 -86.68184 577 ft 22 kts 196°
2026-05-08 00:20 36.12292 -86.68239 572 ft 24 kts 197°
2026-05-08 00:20 36.12134 -86.68295 574 ft 23 kts 196°
2026-05-08 00:20 36.11976 -86.68352 576 ft 23 kts 197°
2026-05-08 00:20 36.11824 -86.68406 581 ft 23 kts 196°
2026-05-08 00:21 36.11741 -86.68489 580 ft 14 kts 279°
2026-05-08 00:21 36.11776 -86.68614 580 ft 13 kts 313°
2026-05-08 00:21 36.11873 -86.68607 575 ft 21 kts 17°
2026-05-08 00:21 36.12263 -86.68454 574 ft 97 kts 18°
2026-05-08 00:22 36.13124 -86.68118 577 ft 161 kts 17°
2026-05-08 00:22 36.14289 -86.67665 1084 ft 176 kts 17°
2026-05-08 00:22 36.15444 -86.67227 2060 ft 175 kts 15°
2026-05-08 00:22 36.16721 -86.67147 2320 ft 199 kts 346°
2026-05-08 00:23 36.18100 -86.67662 2511 ft 217 kts 342°
2026-05-08 00:23 36.19594 -86.68238 2743 ft 231 kts 343°
2026-05-08 00:23 36.21178 -86.68827 3023 ft 248 kts 343°
2026-05-08 00:23 36.22871 -86.69446 3476 ft 258 kts 343°
2026-05-08 00:24 36.24600 -86.70074 4144 ft 260 kts 343°
2026-05-08 00:24 36.26324 -86.70739 4816 ft 260 kts 336°
2026-05-08 00:24 36.27746 -86.72101 5419 ft 262 kts 307°
2026-05-08 00:24 36.28491 -86.74146 6195 ft 263 kts 283°
2026-05-08 00:25 36.28519 -86.76403 6986 ft 268 kts 262°
2026-05-08 00:25 36.28163 -86.78691 7787 ft 272 kts 260°
2026-05-08 00:25 36.27783 -86.81000 8546 ft 275 kts 260°
2026-05-08 00:25 36.27402 -86.83335 9352 ft 278 kts 259°
2026-05-08 00:26 36.26757 -86.85595 10139 ft 281 kts 244°
2026-05-08 00:26 36.25768 -86.87752 10609 ft 298 kts 243°
2026-05-08 00:26 36.24685 -86.90050 10811 ft 320 kts 243°
2026-05-08 00:26 36.23526 -86.92514 10989 ft 342 kts 243°
2026-05-08 00:27 36.22300 -86.95134 11160 ft 362 kts 243°
2026-05-08 00:27 36.21019 -86.97886 11525 ft 373 kts 244°
2026-05-08 00:27 36.19721 -87.00679 12140 ft 376 kts 244°
2026-05-08 00:27 36.18421 -87.03481 12866 ft 375 kts 244°
2026-05-08 00:28 36.17125 -87.06278 13561 ft 375 kts 244°
2026-05-08 00:28 36.15828 -87.09083 14172 ft 377 kts 244°
2026-05-08 00:28 36.14524 -87.11901 14791 ft 378 kts 244°
2026-05-08 00:28 36.13219 -87.14723 15433 ft 378 kts 244°
2026-05-08 00:29 36.11912 -87.17547 15971 ft 380 kts 244°
2026-05-08 00:29 36.10593 -87.20393 16552 ft 381 kts 245°
2026-05-08 00:29 36.09529 -87.23359 17124 ft 376 kts 257°
2026-05-08 00:29 36.08927 -87.26502 17653 ft 376 kts 259°
2026-05-08 00:30 36.08329 -87.29656 18131 ft 378 kts 259°
2026-05-08 00:30 36.07714 -87.32821 18646 ft 379 kts 259°
2026-05-08 00:30 36.07088 -87.35993 19083 ft 381 kts 258°
2026-05-08 00:30 36.06451 -87.39183 19494 ft 384 kts 258°
2026-05-08 00:31 36.05806 -87.42390 19945 ft 385 kts 258°
2026-05-08 00:31 36.05156 -87.45607 20369 ft 387 kts 258°
2026-05-08 00:31 36.04502 -87.48838 20749 ft 389 kts 258°
2026-05-08 00:31 36.03842 -87.52088 21114 ft 391 kts 259°
2026-05-08 00:32 36.03178 -87.55352 21469 ft 393 kts 258°
2026-05-08 00:32 36.02518 -87.58595 21833 ft 394 kts 258°
2026-05-08 00:32 36.01845 -87.61894 22200 ft 396 kts 258°
2026-05-08 00:32 36.01169 -87.65198 22516 ft 398 kts 258°
2026-05-08 00:33 36.00491 -87.68514 22832 ft 399 kts 258°
2026-05-08 00:33 35.99813 -87.71822 23166 ft 400 kts 259°
2026-05-08 00:33 35.99128 -87.75161 23452 ft 403 kts 259°
2026-05-08 00:33 35.98433 -87.78548 23738 ft 404 kts 259°
2026-05-08 00:34 35.97740 -87.81913 24022 ft 405 kts 259°
2026-05-08 00:34 35.97045 -87.85288 24276 ft 407 kts 259°
2026-05-08 00:34 35.96346 -87.88673 24593 ft 407 kts 259°
2026-05-08 00:34 35.95656 -87.92005 24933 ft 406 kts 258°
2026-05-08 00:35 35.94958 -87.95371 25305 ft 404 kts 258°
2026-05-08 00:35 35.94255 -87.98763 25631 ft 402 kts 258°
2026-05-08 00:35 35.93570 -88.02059 25970 ft 400 kts 258°
2026-05-08 00:35 35.92880 -88.05370 26385 ft 396 kts 258°
2026-05-08 00:36 35.92198 -88.08638 26858 ft 391 kts 258°
2026-05-08 00:36 35.91517 -88.11902 27357 ft 384 kts 258°
2026-05-08 00:36 35.90885 -88.15058 27820 ft 380 kts 258°
2026-05-08 00:36 35.90210 -88.18187 28347 ft 374 kts 258°
2026-05-08 00:37 35.89551 -88.21265 28923 ft 367 kts 258°
2026-05-08 00:37 35.88919 -88.24285 29398 ft 361 kts 258°
2026-05-08 00:37 35.88340 -88.27273 29816 ft 356 kts 261°
2026-05-08 00:38 35.87821 -88.33263 30471 ft 350 kts 266°
2026-05-08 00:38 35.87687 -88.36260 30756 ft 350 kts 266°
2026-05-08 00:38 35.87525 -88.39242 31039 ft 348 kts 265°
2026-05-08 00:38 35.87309 -88.42207 31327 ft 346 kts 264°
2026-05-08 00:39 35.87086 -88.45159 31491 ft 348 kts 265°
2026-05-08 00:39 35.86908 -88.48132 31741 ft 347 kts 265°
2026-05-08 00:39 35.86711 -88.51094 32028 ft 346 kts 265°
2026-05-08 00:39 35.86502 -88.54041 32265 ft 345 kts 264°
2026-05-08 00:40 35.86295 -88.56988 32524 ft 344 kts 264°
2026-05-08 00:40 35.86089 -88.59919 32806 ft 343 kts 264°
2026-05-08 00:40 35.85883 -88.62844 33060 ft 342 kts 264°
2026-05-08 00:40 35.85675 -88.65758 33295 ft 341 kts 264°
2026-05-08 00:41 35.85467 -88.68674 33512 ft 341 kts 264°
2026-05-08 00:41 35.85258 -88.71582 33760 ft 340 kts 264°
2026-05-08 00:41 35.85050 -88.74479 33964 ft 340 kts 264°
2026-05-08 00:41 35.84841 -88.77379 34210 ft 339 kts 264°
2026-05-08 00:42 35.84629 -88.80267 34429 ft 338 kts 262°
2026-05-08 00:42 35.84052 -88.83074 34595 ft 340 kts 252°
2026-05-08 00:42 35.83130 -88.85722 34792 ft 342 kts 248°
2026-05-08 00:42 35.81857 -88.88230 34951 ft 350 kts 240°
2026-05-08 00:43 35.80287 -88.90552 35106 ft 354 kts 238°
2026-05-08 00:43 35.78631 -88.92858 35242 ft 356 kts 237°
2026-05-08 00:43 35.76997 -88.95092 35320 ft 357 kts 237°
2026-05-08 00:43 35.75329 -88.97370 35454 ft 358 kts 237°
2026-05-08 00:44 35.73668 -88.99641 35651 ft 357 kts 237°
2026-05-08 00:44 35.72012 -89.01916 35795 ft 357 kts 237°
2026-05-08 00:44 35.70360 -89.04192 35942 ft 357 kts 237°
2026-05-08 00:44 35.68710 -89.06470 36044 ft 357 kts 237°
2026-05-08 00:45 35.67058 -89.08755 36060 ft 358 kts 237°
2026-05-08 00:45 35.63754 -89.13322 36062 ft 357 kts 237°
2026-05-08 00:46 35.60465 -89.17868 36065 ft 356 kts 237°
2026-05-08 00:46 35.57708 -89.21670 36065 ft 355 kts 237°
2026-05-08 00:47 35.54419 -89.26200 36068 ft 355 kts 237°
2026-05-08 00:47 35.51152 -89.30697 36067 ft 355 kts 237°
2026-05-08 00:48 35.47837 -89.35254 36066 ft 356 kts 237°
2026-05-08 00:48 35.44562 -89.39749 36064 ft 356 kts 237°
2026-05-08 00:49 35.41255 -89.44282 36070 ft 357 kts 237°
2026-05-08 00:49 35.37945 -89.48814 36060 ft 357 kts 237°
2026-05-08 00:50 35.34605 -89.53378 36059 ft 358 kts 237°
2026-05-08 00:50 35.31301 -89.57890 36061 ft 358 kts 237°
2026-05-08 00:51 35.27970 -89.62432 36061 ft 359 kts 237°
2026-05-08 00:51 35.24631 -89.66978 36059 ft 360 kts 237°
2026-05-08 00:52 35.21286 -89.71526 36052 ft 360 kts 237°
2026-05-08 00:52 35.17932 -89.76079 36056 ft 360 kts 237°
2026-05-08 00:53 35.14574 -89.80631 36063 ft 360 kts 237°
2026-05-08 00:53 35.11212 -89.85184 36064 ft 361 kts 237°
2026-05-08 00:54 35.07840 -89.89745 36063 ft 362 kts 237°
2026-05-08 00:54 35.04460 -89.94312 36067 ft 363 kts 237°
2026-05-08 00:55 35.01458 -89.99160 36070 ft 355 kts 245°
2026-05-08 00:55 34.99318 -90.04517 36068 ft 351 kts 251°
2026-05-08 00:56 34.97437 -90.10015 36062 ft 351 kts 251°
2026-05-08 00:56 34.95554 -90.15518 36069 ft 352 kts 251°
2026-05-08 00:57 34.93650 -90.21038 36064 ft 353 kts 251°
2026-05-08 00:57 34.91741 -90.26551 36061 ft 354 kts 251°
2026-05-08 00:58 34.89825 -90.32068 36066 ft 354 kts 251°
2026-05-08 00:58 34.87905 -90.37586 36063 ft 354 kts 251°
2026-05-08 00:59 34.85973 -90.43129 36063 ft 355 kts 251°
2026-05-08 00:59 34.84055 -90.48620 36062 ft 355 kts 251°
2026-05-08 01:00 34.82120 -90.54152 36064 ft 355 kts 250°
2026-05-08 01:00 34.80182 -90.59681 36060 ft 355 kts 250°
2026-05-08 01:01 34.78240 -90.65210 36065 ft 355 kts 250°
2026-05-08 01:01 34.76295 -90.70735 36062 ft 356 kts 250°
2026-05-08 01:02 34.74348 -90.76265 36066 ft 355 kts 250°
2026-05-08 01:02 34.72399 -90.81785 36069 ft 355 kts 250°
2026-05-08 01:03 34.70449 -90.87300 36063 ft 355 kts 250°
2026-05-08 01:03 34.68501 -90.92800 36067 ft 354 kts 250°
2026-05-08 01:04 34.66553 -90.98290 36063 ft 354 kts 250°
2026-05-08 01:04 34.64604 -91.03773 36064 ft 354 kts 250°
2026-05-08 01:05 34.62653 -91.09254 36065 ft 354 kts 250°
2026-05-08 01:05 34.60699 -91.14733 36068 ft 354 kts 250°
2026-05-08 01:06 34.58741 -91.20213 36070 ft 354 kts 250°
2026-05-08 01:06 34.56788 -91.25671 36072 ft 354 kts 250°
2026-05-08 01:07 34.54826 -91.31145 36079 ft 354 kts 250°
2026-05-08 01:07 34.52859 -91.36627 36075 ft 355 kts 250°
2026-05-08 01:08 34.50885 -91.42110 36071 ft 355 kts 250°
2026-05-08 01:08 34.48908 -91.47595 36077 ft 355 kts 250°
2026-05-08 01:09 34.46927 -91.53079 36073 ft 355 kts 250°
2026-05-08 01:09 34.44943 -91.58566 36075 ft 355 kts 250°
2026-05-08 01:10 34.42955 -91.64057 36066 ft 356 kts 250°
2026-05-08 01:10 34.40960 -91.69553 36066 ft 356 kts 249°
2026-05-08 01:11 34.38961 -91.75051 36063 ft 357 kts 249°
2026-05-08 01:11 34.36958 -91.80555 36064 ft 357 kts 249°
2026-05-08 01:12 34.34953 -91.86057 36064 ft 357 kts 249°
2026-05-08 01:12 34.32942 -91.91559 36062 ft 358 kts 249°
2026-05-08 01:13 34.30930 -91.97057 36061 ft 358 kts 249°
2026-05-08 01:13 34.28913 -92.02559 36068 ft 358 kts 249°
2026-05-08 01:14 34.26909 -92.08015 36066 ft 358 kts 249°
2026-05-08 01:14 34.24887 -92.13520 36068 ft 358 kts 249°
2026-05-08 01:15 34.22857 -92.19027 36064 ft 359 kts 249°
2026-05-08 01:15 34.20822 -92.24538 36060 ft 359 kts 249°
2026-05-08 01:16 34.18787 -92.30042 36066 ft 359 kts 249°
2026-05-08 01:16 34.16748 -92.35548 36059 ft 359 kts 249°
2026-05-08 01:17 34.14706 -92.41046 36057 ft 359 kts 249°
2026-05-08 01:17 34.12665 -92.46547 36064 ft 359 kts 249°
2026-05-08 01:18 34.10620 -92.52037 36053 ft 358 kts 249°
2026-05-08 01:18 34.08578 -92.57514 36060 ft 358 kts 249°
2026-05-08 01:19 34.06535 -92.62988 36063 ft 357 kts 249°
2026-05-08 01:19 34.04491 -92.68453 36068 ft 358 kts 249°
2026-05-08 01:20 34.02441 -92.73925 36066 ft 358 kts 249°
2026-05-08 01:20 34.00389 -92.79394 36073 ft 358 kts 249°
2026-05-08 01:21 33.98337 -92.84851 36051 ft 358 kts 248°
2026-05-08 01:21 33.96277 -92.90323 36061 ft 360 kts 249°
2026-05-08 01:22 33.94203 -92.95818 36068 ft 361 kts 248°
2026-05-08 01:22 33.92121 -93.01329 36070 ft 362 kts 248°
2026-05-08 01:23 33.90030 -93.06853 36062 ft 363 kts 248°
2026-05-08 01:23 33.87934 -93.12384 36065 ft 364 kts 248°
2026-05-08 01:24 33.85827 -93.17930 36068 ft 364 kts 248°
2026-05-08 01:24 33.83732 -93.23440 36050 ft 365 kts 248°
2026-05-08 01:25 33.81618 -93.28993 36064 ft 365 kts 248°
2026-05-08 01:25 33.79489 -93.34570 36053 ft 366 kts 248°
2026-05-08 01:26 33.77364 -93.40129 36060 ft 366 kts 248°
2026-05-08 01:26 33.75240 -93.45674 36050 ft 365 kts 248°
2026-05-08 01:27 33.73118 -93.51209 36054 ft 365 kts 248°
2026-05-08 01:27 33.71008 -93.56700 36052 ft 364 kts 248°
2026-05-08 01:28 33.68884 -93.62218 36055 ft 364 kts 248°
2026-05-08 01:28 33.66758 -93.67727 36053 ft 364 kts 248°
2026-05-08 01:29 33.64633 -93.73235 36055 ft 363 kts 248°
2026-05-08 01:29 33.62507 -93.78730 36059 ft 363 kts 248°
2026-05-08 01:30 33.60739 -93.83296 36066 ft 363 kts 248°
2026-05-08 01:30 33.58611 -93.88786 36065 ft 363 kts 248°
2026-05-08 01:31 33.56479 -93.94270 36063 ft 363 kts 248°
2026-05-08 01:31 33.54344 -93.99757 36067 ft 363 kts 248°
2026-05-08 01:32 33.52208 -94.05238 36064 ft 363 kts 247°
2026-05-08 01:32 33.50042 -94.10693 36068 ft 359 kts 248°
2026-05-08 01:33 33.47973 -94.16156 36056 ft 362 kts 248°
2026-05-08 01:33 33.45895 -94.21660 36068 ft 366 kts 248°
2026-05-08 01:34 33.43740 -94.27195 36068 ft 367 kts 247°
2026-05-08 01:34 33.41598 -94.32740 36065 ft 366 kts 248°
2026-05-08 01:35 33.39465 -94.38276 36047 ft 366 kts 248°
2026-05-08 01:35 33.37329 -94.43800 36038 ft 366 kts 247°
2026-05-08 01:36 33.35165 -94.49315 36048 ft 366 kts 248°
2026-05-08 01:36 33.33026 -94.54834 36052 ft 366 kts 248°
2026-05-08 01:37 33.30889 -94.60336 36057 ft 366 kts 248°
2026-05-08 01:37 33.28741 -94.65850 36054 ft 366 kts 247°
2026-05-08 01:38 33.26585 -94.71366 36052 ft 366 kts 247°
2026-05-08 01:38 33.24434 -94.76863 36053 ft 366 kts 247°
2026-05-08 01:39 33.22265 -94.82394 36055 ft 366 kts 247°
2026-05-08 01:39 33.20119 -94.87861 36061 ft 366 kts 247°
2026-05-08 01:40 33.17952 -94.93367 36055 ft 366 kts 247°
2026-05-08 01:40 33.15787 -94.98867 36053 ft 366 kts 247°
2026-05-08 01:41 33.13618 -95.04361 36054 ft 367 kts 247°
2026-05-08 01:41 33.11443 -95.09865 36057 ft 367 kts 247°
2026-05-08 01:42 33.09267 -95.15364 36053 ft 367 kts 247°
2026-05-08 01:42 33.07084 -95.20867 36062 ft 367 kts 247°
2026-05-08 01:43 33.04905 -95.26354 36068 ft 366 kts 247°
2026-05-08 01:43 33.02721 -95.31839 36062 ft 367 kts 247°
2026-05-08 01:44 33.00536 -95.37328 36068 ft 367 kts 246°
2026-05-08 01:44 32.98345 -95.42818 36063 ft 367 kts 246°
2026-05-08 01:45 32.96149 -95.48314 36067 ft 367 kts 246°
2026-05-08 01:45 32.93951 -95.53803 36066 ft 367 kts 246°
2026-05-08 01:46 32.91760 -95.59268 36056 ft 367 kts 246°
2026-05-08 01:46 32.89546 -95.64782 36052 ft 367 kts 246°
2026-05-08 01:47 32.87342 -95.70264 36051 ft 367 kts 246°
2026-05-08 01:47 32.85143 -95.75720 36057 ft 368 kts 246°
2026-05-08 01:48 32.81817 -95.83961 36055 ft 369 kts 246°
2026-05-08 01:48 32.79591 -95.89462 36060 ft 370 kts 246°
2026-05-08 01:49 32.77362 -95.94964 36056 ft 370 kts 246°
2026-05-08 01:49 32.75132 -96.00462 36053 ft 369 kts 246°
2026-05-08 01:50 32.72900 -96.05955 36048 ft 370 kts 246°
2026-05-08 01:50 32.70661 -96.11452 36048 ft 370 kts 246°
2026-05-08 01:51 32.68418 -96.16955 36053 ft 370 kts 246°
2026-05-08 01:51 32.66169 -96.22463 36050 ft 371 kts 246°
2026-05-08 01:52 32.63920 -96.27963 36039 ft 371 kts 246°
2026-05-08 01:52 32.61669 -96.33460 36053 ft 371 kts 246°
2026-05-08 01:53 32.59413 -96.38958 36046 ft 371 kts 246°
2026-05-08 01:53 32.57156 -96.44451 36052 ft 371 kts 245°
2026-05-08 01:54 32.54895 -96.49944 36055 ft 371 kts 245°
2026-05-08 01:54 32.52632 -96.55435 36055 ft 371 kts 245°
2026-05-08 01:55 32.50367 -96.60922 36057 ft 371 kts 245°
2026-05-08 01:55 32.48096 -96.66415 36050 ft 371 kts 245°
2026-05-08 01:56 32.45823 -96.71902 36053 ft 371 kts 245°
2026-05-08 01:56 32.43548 -96.77386 36051 ft 371 kts 245°
2026-05-08 01:57 32.41288 -96.82828 36056 ft 371 kts 245°
2026-05-08 01:57 32.38179 -96.87698 36066 ft 381 kts 225°
2026-05-08 01:58 32.33583 -96.90950 36053 ft 396 kts 208°
2026-05-08 01:58 32.28124 -96.92362 36052 ft 403 kts 201°
2026-05-08 01:59 32.22598 -96.93470 36048 ft 402 kts 200°
2026-05-08 01:59 32.17099 -96.94594 36051 ft 400 kts 201°
2026-05-08 02:00 32.11619 -96.95755 36055 ft 400 kts 201°
2026-05-08 02:00 32.06138 -96.96932 36035 ft 401 kts 201°
2026-05-08 02:01 32.03362 -96.97533 35537 ft 408 kts 201°
2026-05-08 02:01 32.00570 -96.98132 34932 ft 408 kts 201°
2026-05-08 02:01 31.97783 -96.98728 34331 ft 407 kts 200°
2026-05-08 02:01 31.94991 -96.99325 33660 ft 409 kts 199°
2026-05-08 02:02 31.92189 -96.99925 32988 ft 409 kts 199°
2026-05-08 02:02 31.89392 -97.00522 32344 ft 408 kts 199°
2026-05-08 02:02 31.86615 -97.01113 31890 ft 406 kts 198°
2026-05-08 02:02 31.83828 -97.01709 31398 ft 409 kts 198°
2026-05-08 02:03 31.81031 -97.02306 30909 ft 407 kts 198°
2026-05-08 02:03 31.78253 -97.02896 30425 ft 403 kts 198°
2026-05-08 02:03 31.75503 -97.03480 29943 ft 400 kts 198°
2026-05-08 02:03 31.72783 -97.04060 29456 ft 396 kts 198°
2026-05-08 02:04 31.70088 -97.04634 28977 ft 392 kts 198°
2026-05-08 02:04 31.67416 -97.05201 28486 ft 389 kts 198°
2026-05-08 02:04 31.64759 -97.05767 27996 ft 386 kts 198°
2026-05-08 02:04 31.62126 -97.06327 27521 ft 384 kts 198°
2026-05-08 02:05 31.59483 -97.06892 27057 ft 390 kts 198°
2026-05-08 02:05 31.56790 -97.07467 26561 ft 395 kts 198°
2026-05-08 02:05 31.54091 -97.08038 26048 ft 392 kts 198°
2026-05-08 02:05 31.51450 -97.08723 25554 ft 385 kts 203°
2026-05-08 02:06 31.48918 -97.09673 25071 ft 380 kts 206°
2026-05-08 02:06 31.46443 -97.10699 24580 ft 377 kts 207°
2026-05-08 02:06 31.43974 -97.11732 24115 ft 376 kts 207°
2026-05-08 02:06 31.41512 -97.12743 23633 ft 375 kts 206°
2026-05-08 02:07 31.39040 -97.13738 23166 ft 377 kts 206°
2026-05-08 02:07 31.36552 -97.14723 22691 ft 377 kts 205°
2026-05-08 02:07 31.34071 -97.15693 22213 ft 375 kts 205°
2026-05-08 02:07 31.31603 -97.16653 21741 ft 372 kts 205°
2026-05-08 02:08 31.29155 -97.17607 21273 ft 369 kts 205°
2026-05-08 02:08 31.26729 -97.18553 20897 ft 364 kts 205°
2026-05-08 02:08 31.24364 -97.19471 20671 ft 355 kts 205°
2026-05-08 02:08 31.22021 -97.20385 20200 ft 354 kts 205°
2026-05-08 02:09 31.19696 -97.21291 19777 ft 351 kts 205°
2026-05-08 02:09 31.17393 -97.22191 19356 ft 348 kts 204°
2026-05-08 02:09 31.15131 -97.23075 18941 ft 346 kts 204°
2026-05-08 02:09 31.12858 -97.23961 18531 ft 343 kts 204°
2026-05-08 02:10 31.10601 -97.24840 18121 ft 341 kts 204°
2026-05-08 02:10 31.08362 -97.25710 17716 ft 338 kts 204°
2026-05-08 02:10 31.06136 -97.26576 17310 ft 336 kts 204°
2026-05-08 02:10 31.03927 -97.27435 16903 ft 334 kts 204°
2026-05-08 02:11 31.01733 -97.28287 16513 ft 331 kts 204°
2026-05-08 02:11 30.99576 -97.29122 16390 ft 322 kts 204°
2026-05-08 02:11 30.97466 -97.29939 16236 ft 316 kts 204°
2026-05-08 02:11 30.95393 -97.30742 16083 ft 307 kts 204°
2026-05-08 02:12 30.93390 -97.31518 15937 ft 300 kts 204°
2026-05-08 02:12 30.91444 -97.32275 15679 ft 296 kts 204°
2026-05-08 02:12 30.89500 -97.33038 15379 ft 294 kts 204°
2026-05-08 02:12 30.87569 -97.33797 15071 ft 292 kts 204°
2026-05-08 02:13 30.85649 -97.34549 14758 ft 290 kts 204°
2026-05-08 02:13 30.83737 -97.35298 14448 ft 289 kts 204°
2026-05-08 02:13 30.81835 -97.36041 14132 ft 288 kts 204°
2026-05-08 02:13 30.80010 -97.36903 14026 ft 276 kts 210°
2026-05-08 02:14 30.78285 -97.37894 13783 ft 277 kts 212°
2026-05-08 02:14 30.76558 -97.38910 13503 ft 281 kts 211°
2026-05-08 02:14 30.74793 -97.39945 13210 ft 286 kts 211°
2026-05-08 02:14 30.72999 -97.40985 12889 ft 289 kts 211°
2026-05-08 02:15 30.71805 -97.41676 12660 ft 288 kts 211°
2026-05-08 02:15 30.70007 -97.42700 12332 ft 288 kts 211°
2026-05-08 02:15 30.68208 -97.43724 12002 ft 287 kts 211°
2026-05-08 02:15 30.66419 -97.44742 11663 ft 287 kts 210°
2026-05-08 02:16 30.64556 -97.45687 11060 ft 297 kts 205°
2026-05-08 02:16 30.62629 -97.46549 10636 ft 298 kts 203°
2026-05-08 02:16 30.60106 -97.47638 10238 ft 284 kts 203°
2026-05-08 02:16 30.58880 -97.48168 10156 ft 274 kts 201°
2026-05-08 02:17 30.57107 -97.48913 10031 ft 270 kts 202°
2026-05-08 02:17 30.55331 -97.49705 9734 ft 276 kts 202°
2026-05-08 02:17 30.53545 -97.50513 9454 ft 275 kts 202°
2026-05-08 02:17 30.51771 -97.51316 9163 ft 274 kts 201°
2026-05-08 02:18 30.50006 -97.52111 8872 ft 274 kts 201°
2026-05-08 02:18 30.48257 -97.52897 8584 ft 273 kts 200°
2026-05-08 02:18 30.46485 -97.53690 8296 ft 272 kts 200°
2026-05-08 02:18 30.44723 -97.54479 8015 ft 271 kts 200°
2026-05-08 02:19 30.42975 -97.55260 7735 ft 270 kts 200°
2026-05-08 02:19 30.41225 -97.56043 7456 ft 269 kts 200°
2026-05-08 02:19 30.39472 -97.56793 7172 ft 268 kts 193°
2026-05-08 02:19 30.37637 -97.56964 6972 ft 262 kts 178°
2026-05-08 02:20 30.35828 -97.56942 6653 ft 262 kts 179°
2026-05-08 02:20 30.34017 -97.56937 6455 ft 257 kts 179°
2026-05-08 02:20 30.32251 -97.56931 6332 ft 250 kts 179°
2026-05-08 02:20 30.30531 -97.56924 6207 ft 244 kts 179°
2026-05-08 02:21 30.28859 -97.56914 6091 ft 237 kts 178°
2026-05-08 02:21 30.27222 -97.56893 5878 ft 235 kts 177°
2026-05-08 02:21 30.25598 -97.56848 5645 ft 233 kts 177°
2026-05-08 02:21 30.23984 -97.56806 5397 ft 232 kts 177°
2026-05-08 02:22 30.22375 -97.56762 5180 ft 230 kts 177°
2026-05-08 02:22 30.20796 -97.56720 5076 ft 226 kts 177°
2026-05-08 02:22 30.19238 -97.56679 4940 ft 226 kts 177°
2026-05-08 02:22 30.17664 -97.56639 4680 ft 226 kts 177°
2026-05-08 02:23 30.16097 -97.56601 4454 ft 225 kts 177°
2026-05-08 02:23 30.14536 -97.56564 4213 ft 225 kts 177°
2026-05-08 02:23 30.12968 -97.56523 3979 ft 226 kts 177°
2026-05-08 02:23 30.11387 -97.56555 3734 ft 228 kts 186°
2026-05-08 02:24 30.09916 -97.57221 3474 ft 230 kts 217°
2026-05-08 02:24 30.08889 -97.58616 3272 ft 229 kts 243°
2026-05-08 02:24 30.08423 -97.60359 3032 ft 229 kts 264°
2026-05-08 02:24 30.08317 -97.62186 2772 ft 226 kts 269°
2026-05-08 02:25 30.08392 -97.63968 2515 ft 217 kts 285°
2026-05-08 02:25 30.08953 -97.65519 2272 ft 202 kts 307°
2026-05-08 02:25 30.09866 -97.66664 2037 ft 189 kts 325°
2026-05-08 02:25 30.10957 -97.67393 1814 ft 175 kts 343°
2026-05-08 02:26 30.12091 -97.67692 1622 ft 161 kts 358°
2026-05-08 02:26 30.13190 -97.67736 1466 ft 160 kts
2026-05-08 02:26 30.14272 -97.67769 1307 ft 158 kts
2026-05-08 02:26 30.15343 -97.67789 1110 ft 152 kts
2026-05-08 02:27 30.16404 -97.67815 895 ft 151 kts
2026-05-08 02:27 30.17444 -97.67840 678 ft 150 kts
2026-05-08 02:27 30.18484 -97.67863 529 ft 143 kts
2026-05-08 02:27 30.19352 -97.67884 528 ft 106 kts 359°
2026-05-08 02:28 30.19947 -97.67900 525 ft 71 kts 359°
2026-05-08 02:28 30.20410 -97.67913 526 ft 63 kts 359°
2026-05-08 02:28 30.20828 -97.67923 527 ft 58 kts 359°
2026-05-08 02:28 30.21195 -97.67934 525 ft 35 kts 358°
2026-05-08 02:29 30.21333 -97.67865 525 ft 20 kts 58°
2026-05-08 02:29 30.21348 -97.67706 526 ft 22 kts 89°
2026-05-08 02:29 30.21294 -97.67551 526 ft 23 kts 158°
2026-05-08 02:29 30.21144 -97.67503 526 ft 22 kts 165°
2026-05-08 02:30 30.20998 -97.67458 526 ft 21 kts 165°
2026-05-08 02:30 30.20847 -97.67410 526 ft 24 kts 165°
2026-05-08 02:30 30.20677 -97.67359 526 ft 25 kts 168°
2026-05-08 02:30 30.20511 -97.67348 526 ft 23 kts 179°
2026-05-08 02:31 30.20355 -97.67344 526 ft 22 kts 179°
2026-05-08 02:31 30.20203 -97.67340 526 ft 22 kts 179°
2026-05-08 02:31 30.20088 -97.67294 526 ft 17 kts 97°
2026-05-08 02:31 30.20091 -97.67160 526 ft 16 kts 88°
2026-05-08 02:32 30.20093 -97.67030 526 ft 16 kts 89°
2026-05-08 02:32 30.20094 -97.66906 526 ft 15 kts 98°
2026-05-08 02:32 30.20069 -97.66792 526 ft 15 kts 101°
2026-05-08 02:32 30.20061 -97.66677 526 ft 14 kts 88°
2026-05-08 02:33 30.20084 -97.66625 526 ft 4 kts 18°
2026-05-08 02:33 30.20114 -97.66631 526 ft 4 kts 347°
2026-05-08 02:33 30.20138 -97.66636 526 ft 2 kts 351°
2026-05-08 02:33 30.20140 -97.66636 526 ft 0 kts 351°